Regional Weather Roundup
Issued by NWS

Home | Current Version | Previous Version | Text Only | Print | Product List | Glossary On
Versions: 1 2 3 4 5 6 7 8 9 10 11 12 13 14 15 16 17 18 19 20 21 22 23 24 25 26 27 28
000
ASUS46 KSEW 211510
RWRWA

WASHINGTON REGIONAL WEATHER ROUNDUP
NATIONAL WEATHER SERVICE SEATTLE WA
800 AM PDT THU SEP 21 2017

NOTE:"FAIR" INDICATES FEW OR NO CLOUDS BELOW 12,000 FEET WITH NO
SIGNIFICANT WEATHER AND/OR OBSTRUCTIONS TO VISIBILITY.

WAZ507-509-555>559-211600-
SEATTLE, TACOMA, EVERETT, AND VICINITY

CITY           SKY/WX    TMP DP  RH WIND       PRES   REMARKS
EVERETT        CLOUDY    51  49  92 CALM      29.91S
BOEING FIELD   CLOUDY    51  48  89 SE6       29.91R
RENTON         CLOUDY    52  50  93 CALM      29.91R
SEATAC AIRPORT CLOUDY    51  49  92 SW3       29.91R
JBLM-MCCHORD   LGT RAIN  49  49 100 SW3       29.91S
PUYALLUP       CLOUDY    50  50 100 CALM      29.91S
BREMERTON      LGT RAIN  48  48 100 CALM      29.91S VSB<1/4
JBLM-FT LEWIS  LGT RAIN  48  48 100 CALM      29.91R
TACOMA NARROWS LGT RAIN  50  49  96 CALM      29.91S
$$

WAZ001-503-506-510-514-515-211600-
NORTH INTERIOR

CITY           SKY/WX    TMP DP  RH WIND       PRES   REMARKS
BELLINGHAM     MOCLDY    50  49  96 CALM      29.92R
FRIDAY HARBOR  MOCLDY    50  48  93 CALM      29.92S
EASTSOUND      PTCLDY    48  48 100 CALM      29.92R
PORT ANGELES   CLOUDY    46  43  89 CALM      29.91R
EDIZ HOOK      FAIR      49  45  86 CALM      29.91R
PORT TOWNSEND  FAIR      46  46 100 CALM      29.92R
NAS WHIDBEY    MOCLDY    50  46  86 CALM      29.96R
ARLINGTON      CLOUDY    50  49  96 N3        29.92R
BURLINGTON     CLOUDY    50  48  93 CALM      29.92R
$$

WAZ020-022-039-040-504-511-512-211600-
SOUTHWEST INTERIOR

CITY           SKY/WX    TMP DP  RH WIND       PRES   REMARKS
SHELTON        CLOUDY    50  49  96 CALM      29.89R FOG
OLYMPIA        MOCLDY    48  48 100 S3        29.91S
CHEHALIS       CLOUDY    50  50 100 S5        29.92R
KELSO          CLOUDY    51  49  92 S6        29.93R
VANCOUVER      LGT RAIN  51  50  96 SE6       29.93R
SCAPPOOSE, OR  CLOUDY    49  47  93 CALM      29.92S
PORTLAND, OR   LGT RAIN  50  48  93 S7        29.94R
$$

WAZ021-516-517-211600-
WASHINGTON COAST

CITY           SKY/WX    TMP DP  RH WIND       PRES   REMARKS
FORKS          MOCLDY    44  42  93 CALM      29.90R
HOQUIAM        CLOUDY    50  50 100 NE6       29.91R
ASTORIA, OR    MOCLDY    48  46  93 CALM      29.90R
$$

WAZ019-023-024-040-567>569-211600-
CASCADE MOUNTAINS AND COLUMBIA GORGE

CITY           SKY/WX    TMP DP  RH WIND       PRES   REMARKS
STAMPEDE PASS  NOT AVBL
TROUTDALE, OR  CLOUDY    51  48  89 CALM      29.94R
HOOD RIVER, OR NOT AVBL
THE DALLES, OR CLOUDY    51  45  79 CALM      29.89R
$$

WAZ026-027-041>044-520-521-211600-
EAST SLOPES

CITY           SKY/WX    TMP DP  RH WIND       PRES   REMARKS
OMAK           CLOUDY    46  45  96 NW6       29.87R
WENATCHEE      CLOUDY    47  43  86 E5        29.86R
ELLENSBURG     CLOUDY    46  38  73 E3        29.86R
YAKIMA         CLOUDY    44  39  82 CALM      29.87R
SUNNYSIDE ARPT NOT AVBL
YAKIMA TC      PTSUNNY   42  38  83 CALM      29.85R
$$

WAZ028-034-035-211600-
COLUMBIA BASIN

CITY           SKY/WX    TMP DP  RH WIND       PRES   REMARKS
EPHRATA        CLOUDY    45  38  76 NE5       29.86R
MOSES LAKE     CLOUDY    42  39  89 N3        29.87R
PASCO          MOSUNNY   44  42  93 SE3       29.88R
RICHLAND ARPT  PTSUNNY   49  44  83 CALM      29.88R
HERMISTON, OR  SUNNY     44  41  89 CALM      29.89R
$$

WAZ036>038-211600-
NORTHEAST WASHINGTON

CITY           SKY/WX    TMP DP  RH WIND       PRES   REMARKS
SPOKANE GEIGER RAIN      42  42 100 SE3       29.85R FOG
SPOKANE FELTS  RAIN      45  43  93 SW5       29.86R FOG
FAIRCHILD AFB  RAIN      41  41 100 S3        29.84R FOG
COEURDALENE,ID CLOUDY    44  41  89 CALM      29.85R
DEER PARK      LGT RAIN  42  41  96 S3        29.85R
$$

WAZ029>033-211600-
SOUTHEAST WASHINGTON

CITY           SKY/WX    TMP DP  RH WIND       PRES   REMARKS
PULLMAN        SUNNY     41  38  89 CALM      29.87R
LEWISTON, ID   CLOUDY    47  42  83 CALM      29.87R
WALLA WALLA    MOSUNNY   49  41  74 S8        29.88R
PENDLETON, OR  MOSUNNY   48  39  71 S6        29.87R
$$




USA.gov is the U.S. government's official web portal to all federal, state and local government web resources and services.